DW6791 Weather Reports


Display with metric or nautical units.
time (UTC)temp
F
wind
direction
speed
MPH
gust
MPH
rain 1hr
in
rain 24hr
in
rain mn
in
humidity
%
barometer
mb
20260506131503 74 154 0.0 2.0 0.00 0.00 0.00 90 1010.7
20260506131003 74 204 0.0 2.0 0.00 0.00 0.00 90 1010.7
20260506130503 74 228 0.0 1.0 0.00 0.00 0.00 90 1010.5
20260506130024 74 0 0.0 0.0 0.00 0.00 0.00 91 1010.6
20260506125503 73 39 0.0 1.0 0.00 0.00 0.00 91 1010.5
20260506125003 73 74 0.0 2.0 0.00 0.00 0.00 91 1010.5
20260506124503 73 89 0.0 2.0 0.00 0.00 0.00 91 1010.4
20260506124024 73 53 0.0 1.0 0.00 0.00 0.00 91 1010.3
20260506123503 73 47 0.0 1.0 0.00 0.00 0.00 92 1010.4
20260506123003 73 255 0.0 1.0 0.00 0.00 0.00 92 1010.2
20260506122503 73 255 0.0 1.0 0.00 0.00 0.00 91 1010.2
20260506122003 73 0 0.0 0.0 0.00 0.00 0.00 92 1010.1
20260506121503 72 0 0.0 0.0 0.00 0.00 0.00 92 1010.1
20260506121024 72 0 0.0 0.0 0.00 0.00 0.00 92 1010.1
20260506120503 72 0 0.0 0.0 0.00 0.00 0.00 92 1010.0
20260506120003 72 253 0.0 1.0 0.00 0.00 0.00 91 1010.0
20260506115503 72 253 0.0 1.0 0.00 0.00 0.00 91 1009.8
20260506115003 72 0 0.0 0.0 0.00 0.00 0.00 91 1009.7
20260506114503 72 0 0.0 0.0 0.00 0.00 0.00 91 1009.6
20260506114003 72 0 0.0 0.0 0.00 0.00 0.00 91 1009.6
20260506113503 72 0 0.0 0.0 0.00 0.00 0.00 91 1009.6
20260506113003 72 0 0.0 0.0 0.00 0.00 0.00 91 1009.6
20260506112525 72 0 0.0 0.0 0.00 0.00 0.00 91 1009.5
20260506112003 72 0 0.0 0.0 0.00 0.00 0.00 91 1009.4
20260506111524 72 0 0.0 0.0 0.00 0.00 0.00 91 1009.3
20260506111003 72 218 0.0 1.0 0.00 0.00 0.00 91 1009.3
20260506110503 73 218 0.0 2.0 0.00 0.00 0.00 91 1009.3
20260506110003 73 218 0.0 2.0 0.00 0.00 0.00 90 1009.3
20260506105503 73 218 1.0 2.0 0.00 0.00 0.00 91 1009.1
20260506105003 73 218 0.0 2.0 0.00 0.00 0.00 91 1009.1
20260506104503 73 228 0.0 2.0 0.00 0.00 0.00 90 1009.2
20260506104003 73 228 0.0 2.0 0.00 0.00 0.00 91 1009.1
20260506103524 73 228 0.0 1.0 0.00 0.00 0.00 91 1009.0
20260506103003 73 229 0.0 3.0 0.00 0.00 0.00 91 1008.9
20260506102503 73 231 1.0 3.0 0.00 0.00 0.00 90 1008.9
20260506102003 73 235 0.0 2.0 0.00 0.00 0.00 90 1008.9
20260506101524 73 236 1.0 4.0 0.00 0.00 0.00 90 1009.0
20260506101003 73 236 1.0 4.0 0.00 0.00 0.00 90 1009.0
20260506100503 73 235 0.0 2.0 0.00 0.00 0.00 90 1009.0
20260506100003 73 229 1.0 4.0 0.00 0.00 0.00 90 1008.9
20260506095503 73 129 1.0 4.0 0.00 0.00 0.00 90 1008.7
20260506095003 73 90 1.0 4.0 0.00 0.00 0.00 90 1008.7
20260506094503 74 64 1.0 4.0 0.00 0.00 0.00 89 1008.7
20260506094003 74 103 0.0 3.0 0.00 0.00 0.00 89 1008.7
20260506093524 74 126 1.0 3.0 0.00 0.00 0.00 89 1008.6
20260506093003 74 229 0.0 3.0 0.00 0.00 0.00 89 1008.7
20260506092503 74 267 0.0 2.0 0.00 0.00 0.00 89 1008.8
20260506092003 74 267 0.0 2.0 0.00 0.00 0.00 89 1008.9
20260506091503 74 267 1.0 3.0 0.00 0.00 0.00 89 1008.8
20260506091003 74 261 1.0 4.0 0.00 0.00 0.00 89 1008.9
20260506090503 74 256 1.0 4.0 0.00 0.00 0.00 89 1008.9
20260506090003 74 250 0.0 3.0 0.00 0.00 0.00 89 1008.8
20260506085503 74 255 0.0 3.0 0.00 0.00 0.00 89 1008.8
20260506085024 73 264 1.0 3.0 0.00 0.00 0.00 89 1008.8
20260506084503 73 270 1.0 4.0 0.00 0.00 0.00 89 1008.9
20260506084003 73 273 0.0 4.0 0.00 0.00 0.00 89 1008.7
20260506083503 74 251 0.0 3.0 0.00 0.00 0.00 89 1008.6
20260506083003 74 215 0.0 3.0 0.00 0.00 0.00 89 1008.7
20260506082503 74 193 0.0 2.0 0.00 0.00 0.00 89 1008.7
20260506082024 74 192 0.0 3.0 0.00 0.00 0.00 89 1008.7
20260506081503 74 215 1.0 4.0 0.00 0.00 0.00 88 1008.6
20260506081003 74 234 1.0 4.0 0.00 0.00 0.00 88 1008.6
20260506080503 74 227 1.0 4.0 0.00 0.00 0.00 88 1008.7
20260506073524 74 218 1.0 5.0 0.00 0.00 0.00 88 1008.8
20260506073003 74 243 2.0 5.0 0.00 0.00 0.00 87 1008.8
20260506072503 74 256 1.0 4.0 0.00 0.00 0.00 87 1008.9
20260506072024 74 242 1.0 5.0 0.00 0.00 0.00 87 1008.9
20260506071503 75 255 2.0 5.0 0.00 0.00 0.00 87 1009.0
20260506071003 75 261 1.0 5.0 0.00 0.00 0.00 87 1009.0
20260506070503 75 261 1.0 8.0 0.00 0.00 0.00 87 1008.9
20260506062503 75 250 3.0 8.0 0.00 0.00 0.00 86 1009.7
20260506062024 75 250 3.0 8.0 0.00 0.00 0.00 86 1009.6
20260506061503 75 253 2.0 7.0 0.00 0.00 0.00 86 1009.4
20260506061003 75 257 2.0 6.0 0.00 0.00 0.00 86 1009.2
20260506060503 75 241 2.0 8.0 0.00 0.00 0.00 86 1009.3
20260506051003 75 248 3.0 10.0 0.00 0.00 0.00 86 1008.6
20260506050503 75 227 2.0 9.0 0.00 0.00 0.00 86 1008.5
20260506045003 75 228 3.0 11.0 0.00 0.00 0.00 86 1008.6
20260506044503 75 255 2.0 11.0 0.00 0.00 0.00 85 1008.6
20260506044003 76 235 3.0 11.0 0.00 0.00 0.00 85 1008.4
20260506043503 76 234 3.0 10.0 0.00 0.00 0.00 85 1008.4
20260506043003 76 244 2.0 10.0 0.00 0.00 0.00 85 1008.5
20260506042503 76 246 1.0 7.0 0.00 0.00 0.00 85 1008.6
20260506042003 76 235 1.0 8.0 0.00 0.00 0.00 85 1008.8
20260506041503 76 226 2.0 8.0 0.00 0.00 0.00 85 1008.8
20260506041024 76 238 2.0 8.0 0.00 0.00 0.00 85 1008.8
20260506040503 76 243 2.0 7.0 0.00 0.00 0.00 85 1008.8
20260506040024 76 231 1.0 6.0 0.00 0.00 0.00 85 1008.7
20260506035503 76 277 1.0 8.0 0.00 0.00 0.00 85 1008.7
20260506035003 76 283 1.0 8.0 0.00 0.00 0.00 85 1008.7
20260506034503 76 267 2.0 10.0 0.00 0.00 0.00 85 1008.7
20260506034003 76 253 2.0 10.0 0.00 0.00 0.00 85 1008.7
20260506033503 76 259 2.0 9.0 0.00 0.00 0.00 85 1008.5
20260506033024 76 249 2.0 9.0 0.00 0.00 0.00 85 1008.5
20260506032503 76 262 2.0 9.0 0.00 0.00 0.00 85 1008.5
20260506032003 76 295 2.0 9.0 0.00 0.00 0.00 85 1008.4
20260506031503 77 230 1.0 8.0 0.00 0.00 0.00 84 1008.3
20260506031003 77 237 2.0 7.0 0.00 0.00 0.00 84 1008.4
20260506030503 77 245 2.0 7.0 0.00 0.00 0.00 84 1008.5
20260506030003 77 252 2.0 5.0 0.00 0.00 0.00 84 1008.6
20260506025503 77 244 1.0 5.0 0.00 0.00 0.00 84 1008.6
20260506025003 77 241 2.0 7.0 0.00 0.00 0.00 84 1008.4
20260506024503 77 201 2.0 7.0 0.00 0.00 0.00 84 1008.3
20260506024003 77 212 2.0 7.0 0.00 0.00 0.00 84 1008.2
20260506023503 77 231 1.0 7.0 0.00 0.00 0.00 84 1008.1
20260506023003 77 234 1.0 7.0 0.00 0.00 0.00 84 1008.1
20260506022503 77 269 1.0 5.0 0.00 0.00 0.00 84 1007.8
20260506022003 77 279 1.0 5.0 0.00 0.00 0.00 84 1007.7
20260506021503 77 45 1.0 6.0 0.00 0.00 0.00 84 1007.6
20260506021003 77 108 2.0 9.0 0.00 0.00 0.00 84 1007.4
20260506020503 77 116 3.0 11.0 0.00 0.00 0.00 84 1007.3
20260506020003 77 110 3.0 11.0 0.00 0.00 0.00 84 1007.2
20260506015503 77 112 3.0 8.0 0.00 0.00 0.00 83 1007.1
20260506015003 77 170 2.0 7.0 0.00 0.00 0.00 83 1007.1
20260506014503 77 171 2.0 7.0 0.00 0.00 0.00 83 1007.1
20260506014003 78 116 2.0 6.0 0.00 0.00 0.00 83 1007.1
20260506013503 78 114 2.0 4.0 0.00 0.00 0.00 83 1007.1
20260506013003 78 121 2.0 7.0 0.00 0.00 0.00 83 1007.0
20260506012503 78 151 2.0 7.0 0.00 0.00 0.00 82 1006.9
20260506012003 78 212 2.0 7.0 0.00 0.00 0.00 82 1006.8
20260506011503 78 114 2.0 8.0 0.00 0.00 0.00 82 1006.7
20260506011024 78 110 3.0 8.0 0.00 0.00 0.00 82 1006.5
20260506010524 78 95 2.0 7.0 0.00 0.00 0.00 82 1006.5
20260506010003 78 83 1.0 4.0 0.00 0.00 0.00 81 1006.4
20260506005503 79 117 1.0 4.0 0.00 0.00 0.00 81 1006.4
20260506005003 79 129 0.0 4.0 0.00 0.00 0.00 81 1006.5
20260506004503 79 242 0.0 5.0 0.00 0.00 0.00 80 1006.3
20260506004003 79 200 1.0 6.0 0.00 0.00 0.00 80 1006.3
20260506003503 79 252 1.0 8.0 0.00 0.00 0.00 80 1006.3
20260506003003 80 291 1.0 8.0 0.00 0.00 0.00 79 1006.3
20260506002503 80 192 2.0 8.0 0.00 0.00 0.00 79 1006.2
20260506002003 80 118 3.0 8.0 0.00 0.00 0.00 79 1006.1
20260506001503 80 122 3.0 7.0 0.00 0.00 0.00 78 1006.0
20260506001024 80 131 2.0 5.0 0.00 0.00 0.00 78 1006.0
20260506000503 81 118 1.0 7.0 0.00 0.00 0.00 77 1006.0
20260506000003 81 130 2.0 7.0 0.00 0.00 0.00 77 1006.0
20260505235503 81 174 2.0 6.0 0.00 0.00 0.00 77 1006.1
20260505235003 81 218 2.0 11.0 0.00 0.00 0.00 76 1006.1
20260505234503 82 200 2.0 11.0 0.00 0.00 0.00 76 1006.1
20260505234003 81 136 2.0 8.0 0.00 0.00 0.00 76 1006.1
20260505233503 81 121 2.0 8.0 0.00 0.00 0.00 75 1006.0
20260505233024 82 114 2.0 8.0 0.00 0.00 0.00 75 1006.1
20260505232524 82 136 1.0 8.0 0.00 0.00 0.00 75 1006.1
20260505232003 82 214 1.0 8.0 0.00 0.00 0.00 75 1006.1
20260505231503 82 262 2.0 8.0 0.00 0.00 0.00 74 1006.1
20260505231004 82 220 3.0 8.0 0.00 0.00 0.00 74 1006.1
20260505230503 82 130 2.0 10.0 0.00 0.00 0.00 74 1006.1
20260505230003 82 195 2.0 10.0 0.00 0.00 0.00 73 1006.2
20260505225504 83 186 2.0 9.0 0.00 0.00 0.00 72 1006.1
20260505225003 83 98 2.0 11.0 0.00 0.00 0.00 74 1006.2
20260505224503 82 124 2.0 11.0 0.00 0.00 0.00 74 1006.2
20260505224003 82 168 2.0 6.0 0.00 0.00 0.00 75 1006.2
20260505223503 82 247 3.0 11.0 0.00 0.00 0.00 75 1006.2
20260505223003 82 257 3.0 11.0 0.00 0.00 0.00 74 1006.2
20260505222504 82 250 3.0 9.0 0.00 0.00 0.00 74 1006.2
20260505222003 82 246 3.0 9.0 0.00 0.00 0.00 73 1006.3
20260505221503 82 242 3.0 10.0 0.00 0.00 0.00 73 1006.2
20260505221025 83 249 5.0 13.0 0.00 0.00 0.00 73 1006.2
20260505220524 83 246 5.0 13.0 0.00 0.00 0.00 71 1006.1
20260505220003 83 246 4.0 19.0 0.00 0.00 0.00 71 1006.2
20260505215524 83 251 5.0 19.0 0.00 0.00 0.00 71 1006.3
20260505215003 83 250 5.0 12.0 0.00 0.00 0.00 71 1006.3
20260505214524 83 255 5.0 12.0 0.00 0.00 0.00 71 1006.2
20260505214003 84 255 4.0 15.0 0.00 0.00 0.00 71 1006.2
20260505213503 84 239 5.0 15.0 0.00 0.00 0.00 70 1006.2
20260505213003 84 249 5.0 14.0 0.00 0.00 0.00 69 1006.3
20260505212503 84 256 5.0 14.0 0.00 0.00 0.00 70 1006.2
20260505212024 84 238 5.0 11.0 0.00 0.00 0.00 70 1006.1
20260505211524 83 233 5.0 11.0 0.00 0.00 0.00 72 1006.2
20260505211003 84 253 6.0 13.0 0.00 0.00 0.00 69 1006.4
20260505210503 85 251 7.0 15.0 0.00 0.00 0.00 69 1006.4
20260505210003 84 248 7.0 16.0 0.00 0.00 0.00 71 1006.4
20260505205524 84 250 6.0 16.0 0.00 0.00 0.00 70 1006.6
20260505205003 84 253 6.0 13.0 0.00 0.00 0.00 73 1006.7
20260505204503 84 246 6.0 16.0 0.00 0.00 0.00 71 1006.7
20260505204003 84 243 6.0 16.0 0.00 0.00 0.00 70 1006.8
20260505203503 83 247 7.0 15.0 0.00 0.00 0.00 70 1006.8
20260505203003 83 251 9.0 18.0 0.00 0.00 0.00 70 1006.9
20260505202503 83 252 7.0 18.0 0.00 0.00 0.00 70 1007.1
20260505202003 83 245 5.0 15.0 0.00 0.00 0.00 70 1006.9
20260505201503 83 251 6.0 16.0 0.00 0.00 0.00 71 1007.1
20260505201003 82 256 8.0 16.0 0.00 0.00 0.00 72 1007.2
20260505200524 83 257 6.0 16.0 0.00 0.00 0.00 71 1007.3
20260505200024 83 249 6.0 12.0 0.00 0.00 0.00 73 1007.3
20260505195503 82 248 6.0 12.0 0.00 0.00 0.00 73 1007.2
20260505195003 82 252 5.0 11.0 0.00 0.00 0.00 73 1007.3
20260505194503 82 254 5.0 11.0 0.00 0.00 0.00 74 1007.4
20260505194003 82 250 4.0 10.0 0.00 0.00 0.00 74 1007.5
20260505193524 82 250 4.0 15.0 0.00 0.00 0.00 75 1007.7
20260505193024 82 249 5.0 15.0 0.00 0.00 0.00 74 1007.7
20260505192503 82 248 5.0 14.0 0.00 0.00 0.00 74 1007.6
20260505192003 82 249 4.0 11.0 0.00 0.00 0.00 74 1007.6
20260505191503 81 239 5.0 10.0 0.00 0.00 0.00 75 1007.7
20260505191003 82 247 7.0 16.0 0.00 0.00 0.00 75 1007.8
20260505190503 81 252 8.0 16.0 0.00 0.00 0.00 73 1007.7
20260505190024 81 250 8.0 21.0 0.00 0.00 0.00 74 1007.6
20260505185503 81 249 9.0 21.0 0.00 0.00 0.00 73 1007.8
20260505185003 82 248 7.0 17.0 0.00 0.00 0.00 73 1007.7
20260505184503 82 254 8.0 19.0 0.00 0.00 0.00 74 1007.7
20260505184003 82 255 8.0 19.0 0.00 0.00 0.00 74 1007.8
20260505183524 81 252 7.0 15.0 0.00 0.00 0.00 75 1008.0
20260505183024 81 250 7.0 15.0 0.00 0.00 0.00 75 1008.1
20260505182503 80 245 7.0 15.0 0.00 0.00 0.00 77 1008.0
20260505182003 79 248 6.0 14.0 0.00 0.00 0.00 77 1008.2
20260505181503 80 254 6.0 13.0 0.00 0.00 0.00 77 1008.2
20260505181003 80 249 6.0 13.0 0.00 0.00 0.00 77 1008.2
20260505180503 80 249 6.0 14.0 0.00 0.00 0.00 77 1008.2
20260505180024 79 254 6.0 14.0 0.00 0.00 0.00 77 1008.3
20260505175503 79 251 7.0 13.0 0.00 0.00 0.00 78 1008.4
20260505175003 79 250 7.0 13.0 0.00 0.00 0.00 78 1008.5
20260505174503 79 252 6.0 13.0 0.00 0.00 0.00 78 1008.5
20260505174024 78 249 6.0 13.0 0.00 0.00 0.00 79 1008.5
20260505173503 78 245 5.0 14.0 0.00 0.00 0.00 80 1008.5
20260505173003 78 251 6.0 16.0 0.00 0.00 0.00 79 1008.6
20260505172503 78 242 5.0 16.0 0.00 0.00 0.00 80 1008.5
20260505172003 78 228 5.0 16.0 0.00 0.00 0.00 80 1008.5
20260505171503 77 250 6.0 15.0 0.00 0.00 0.00 81 1008.5
20260505171003 76 255 7.0 15.0 0.00 0.00 0.00 82 1008.7
20260505170503 76 251 6.0 15.0 0.00 0.00 0.00 82 1008.7
20260505170024 76 250 6.0 12.0 0.00 0.00 0.00 81 1008.8
20260505165524 76 253 5.0 12.0 0.00 0.00 0.00 81 1009.0
20260505165003 76 247 5.0 12.0 0.00 0.00 0.00 82 1008.8
20260505164503 76 245 4.0 11.0 0.00 0.00 0.00 82 1008.8
20260505164024 76 244 4.0 11.0 0.00 0.00 0.00 82 1008.7
20260505163524 76 241 3.0 10.0 0.00 0.00 0.00 83 1008.8
20260505163003 75 246 4.0 13.0 0.00 0.00 0.00 83 1008.8
20260505162524 75 255 4.0 13.0 0.00 0.00 0.00 83 1008.9
20260505162024 75 261 2.0 8.0 0.00 0.00 0.00 83 1008.9
20260505161503 75 255 3.0 9.0 0.00 0.00 0.00 84 1009.1
20260505161003 74 256 4.0 9.0 0.00 0.00 0.00 83 1009.1
20260505160524 74 257 3.0 9.0 0.00 0.00 0.00 84 1008.9
20260505153003 73 252 3.0 9.0 0.00 0.00 0.00 85 1008.9
20260505152503 73 262 1.0 6.0 0.00 0.00 0.00 85 1008.8
20260505152003 73 267 1.0 9.0 0.00 0.00 0.00 86 1008.7
20260505151503 72 260 2.0 9.0 0.00 0.00 0.00 86 1008.8
20260505151003 72 255 3.0 8.0 0.00 0.00 0.00 87 1008.8
20260505150503 72 254 4.0 8.0 0.00 0.00 0.00 87 1008.9
20260505140503 71 250 4.0 10.0 0.00 0.00 0.00 87 1008.8